Location: Stigler
(35.2540°N, 95.1230°W)
Time: 11:03:10
(UTC-06:00)

H-2A R/B - Pass Details

Date: 26 September 2017
Orbit: 505 x 544 km, 97.3° (Epoch: 18 November)

Event Time Altitude Azimuth Distance (km) Brightness Sun altitude
Exits shadow 20:29:14 - 172° (S) 2,509 6.0 -16.7°
Reaches altitude 10° 20:31:07 10° 174° (S) 1,718 5.2 -17.1°
Maximum altitude 20:34:48 72° 259° (W) 542 2.9 -17.9°
Drops below altitude 10° 20:38:33 10° 344° (NNW) 1,749 5.7 -18.6°
Sets 20:40:41 0° 347° (NNW) 2,647 6.6 -19.0°
